Regional Weather Roundup
Issued by NWS Nashville, TN

Home | Current Version | Previous Version | Text Only | Print | Product List | Glossary On
Versions: 1 2 3 4 5 6 7 8 9 10 11 12 13 14 15 16 17 18 19 20 21 22 23 24 25 26 27 28 29 30 31 32 33 34 35 36 37 38 39 40 41 42 43 44 45 46 47 48 49 50
521
ASUS44 KOHX 091610
RWROHX
MIDDLE TENNESSEE HOURLY WEATHER ROUNDUP
NATIONAL WEATHER SERVICE NASHVILLE TN
1000 AM CST FRI DEC 09 2016

NOTE: "FAIR" INDICATES FEW OR NO CLOUDS BELOW 12,000 FEET WITH
NO SIGNIFICANT WEATHER AND/OR OBSTRUCTIONS TO VISIBILITY.

* THESE REPORTS ARE NOT UNDER NWS QUALITY CONTROL AND MAY NOT
  REPORT WEATHER SUCH AS PRECIPITATION AND FOG.


TNZ005>011-023>034-057-059-062>066-078-080-091700
...NORTHERN MIDDLE TENNESSEE...

CITY           SKY/WX    TMP DP  RH WIND       PRES   REMARKS
CLARKSVILLE    MOSUNNY   28  16  60 VRB3      30.63S
CROSSVILLE     SUNNY     23  14  68 VRB7      30.50S WCI  15
GALLATIN       SUNNY     28  14  54 N7        30.65S WCI  21
LEBANON        SUNNY     28  15  58 N5        30.59  WCI  23
NASHVILLE      MOSUNNY   30  15  53 NE5       30.63R WCI  25
PORTLAND       PTSUNNY   27  16  63 N6        30.61S WCI  20
SMYRNA         MOSUNNY   28  17  63 NW7       30.63S WCI  21
SPRINGFIELD    MOSUNNY   27  16  63 CALM      30.61S
WEST NASHVILLE PTSUNNY   27  14  59 CALM      30.63S
$$
TNZ056-058-060-061-075>077-079-093>097-091700
...SOUTHERN MIDDLE TENNESSEE...

CITY           SKY/WX    TMP DP  RH WIND       PRES   REMARKS
COLUMBIA       CLOUDY    28  19  69 N6        30.60R WCI  22
FAYETTEVILLE   MOSUNNY   27  18  69 VRB3      30.59R
MCMINNVILLE    CLOUDY    27  18  69 VRB3        N/A
MURFREESBORO   MOSUNNY   29  16  58 NE8       30.61R WCI  21
SHELBYVILLE    MOSUNNY   28  18  64 N9        30.60S WCI  20
TULLAHOMA        N/A     27  14  59 NE7       30.57S WCI  19
WINCHESTER     SUNNY     27  16  63 NE8       30.57S WCI  18
$$


...KEY TO REMARKS...
VSB - VISIBILITY IN MILES
WCI - WIND CHILL INDEX
HX  - HEAT INDEX





USA.gov is the U.S. government's official web portal to all federal, state and local government web resources and services.